Location: Gez
(43.0167°N, 0.1000°W)
Time: 12:23:04
(UTC+00:00)

SL-24 R/B - Pass Details

Date: 17 January 2026
Orbit: 679 x 1188 km, 98.2° (Epoch: 10 February)

Event Time Altitude Azimuth Distance (km) Brightness Sun altitude
Rises 02:10:15 0° 31° (NNE) 4,086 9.2 -56.5°
Reaches altitude 10° 02:14:45 10° 56° (NE) 3,120 8.5 -55.8°
Enters shadow 02:15:12 11° 60° (ENE) 3,054 8.5 -55.7°
